When you browse on this site, cookies collect data to enhance your experience and personalize the content and advertising you see.
Visit our Privacy Policy to learn more. By continuing to use the site, you agree to this use of cookies and data.
  • In Latvia
  • List of Countries
  • For 7 days
  • Water Temperature
  • Weather Map
  • Weather Widgets
  • user-avatar
    Login

    Hourly Weather Rokietnica

    Today, 26 February, Wednesday

    Time Temperature Precipitation Wind Pressure Humidity
    00:00 +6°C° 0.1 mm 5 mps 727 mmHg 81%
    01:00 +6°C° 0.1 mm 5 mps 726 mmHg 82%
    02:00 +7°C° 0 mm 3 mps 726 mmHg 83%
    03:00 +7°C° 0 mm 3 mps 726 mmHg 85%
    04:00 +7°C° 0 mm 3 mps 725 mmHg 86%
    05:00 +5°C° 0 mm 3 mps 725 mmHg 87%
    06:00 +5°C° 0 mm 3 mps 724 mmHg 88%
    07:00 +5°C° 0 mm 3 mps 724 mmHg 89%
    08:00 +6°C° 0 mm 2 mps 724 mmHg 90%
    09:00 +7°C° 0 mm 3 mps 724 mmHg 85%
    10:00 +8°C° 0 mm 3 mps 723 mmHg 81%
    11:00 +9°C° 0 mm 3 mps 723 mmHg 77%
    12:00 +8°C° 0.7 mm 3 mps 723 mmHg 80%
    13:00 +7°C° 0.7 mm 4 mps 722 mmHg 82%
    14:00 +6°C° 0.7 mm 4 mps 722 mmHg 85%
    15:00 +7°C° 1.6 mm 3 mps 722 mmHg 86%
    16:00 +6°C° 1.6 mm 2 mps 722 mmHg 86%
    17:00 +6°C° 1.6 mm 2 mps 722 mmHg 87%
    18:00 +6°C° 0.5 mm 2 mps 722 mmHg 86%
    19:00 +6°C° 0.5 mm 2 mps 723 mmHg 85%
    20:00 +4°C° 0.5 mm 3 mps 723 mmHg 84%
    21:00 +4°C° 0.1 mm 3 mps 724 mmHg 84%
    22:00 +3°C° 0.1 mm 4 mps 724 mmHg 84%
    23:00 +3°C° 0.1 mm 4 mps 724 mmHg 84%

    Tomorrow, 27 February, Thursday

    Time Temperature Precipitation Wind Pressure Humidity
    00:00 +3°C° 0 mm 4 mps 725 mmHg 83%
    01:00 +2°C° 0 mm 3 mps 725 mmHg 82%
    02:00 +2°C° 0 mm 3 mps 725 mmHg 81%
    03:00 +1°C° 0 mm 3 mps 725 mmHg 80%
    04:00 0°C° 0 mm 4 mps 725 mmHg 79%
    05:00 0°C° 0 mm 4 mps 725 mmHg 78%
    06:00 -1°C° 0 mm 4 mps 726 mmHg 81%
    07:00 -1°C° 0 mm 5 mps 727 mmHg 84%
    08:00 -1°C° 0 mm 5 mps 727 mmHg 87%
    09:00 0°C° 0 mm 5 mps 728 mmHg 82%
    10:00 -1°C° 0 mm 6 mps 728 mmHg 78%
    11:00 +1°C° 0 mm 6 mps 728 mmHg 74%
    12:00 +1°C° 0.1 mm 6 mps 729 mmHg 69%
    13:00 +2°C° 0.1 mm 6 mps 729 mmHg 64%
    14:00 +2°C° 0.1 mm 7 mps 729 mmHg 59%
    15:00 +2°C° 0 mm 6 mps 729 mmHg 59%
    16:00 +2°C° 0 mm 5 mps 729 mmHg 59%
    17:00 +2°C° 0 mm 5 mps 729 mmHg 58%
    18:00 +1°C° 0 mm 4 mps 729 mmHg 64%
    19:00 +1°C° 0 mm 3 mps 730 mmHg 70%
    20:00 +1°C° 0 mm 2 mps 730 mmHg 76%
    21:00 +1°C° 0 mm 2 mps 730 mmHg 77%
    22:00 -1°C° 0 mm 2 mps 730 mmHg 77%
    23:00 -1°C° 0 mm 2 mps 729 mmHg 78%

    Day after tomorrow, 28 February, Friday

    Time Temperature Precipitation Wind Pressure Humidity
    00:00 -1°C° 0 mm 3 mps 729 mmHg 76%
    01:00 0°C° 0 mm 3 mps 728 mmHg 74%
    02:00 0°C° 0 mm 3 mps 728 mmHg 72%
    03:00 -1°C° 0 mm 4 mps 727 mmHg 71%
    04:00 -1°C° 0 mm 4 mps 727 mmHg 70%
    05:00 0°C° 0 mm 4 mps 726 mmHg 69%
    06:00 -1°C° 0.5 mm 5 mps 725 mmHg 75%
    07:00 -1°C° 0.5 mm 5 mps 725 mmHg 82%
    08:00 -2°C° 0.5 mm 6 mps 724 mmHg 89%
    09:00 0°C° 0.4 mm 5 mps 724 mmHg 85%
    10:00 +1°C° 0.4 mm 5 mps 724 mmHg 81%
    11:00 +1°C° 0.4 mm 4 mps 724 mmHg 77%
    12:00 +1°C° 0.3 mm 5 mps 725 mmHg 82%
    13:00 +1°C° 0.3 mm 5 mps 726 mmHg 86%
    14:00 0°C° 0.3 mm 5 mps 727 mmHg 90%
    15:00 -1°C° 0.4 mm 6 mps 728 mmHg 92%
    16:00 -2°C° 0.4 mm 7 mps 729 mmHg 94%
    17:00 -2°C° 0.4 mm 8 mps 730 mmHg 96%
    18:00 -2°C° 0.4 mm 7 mps 731 mmHg 96%
    19:00 -2°C° 0.4 mm 7 mps 732 mmHg 96%
    20:00 -2°C° 0.4 mm 6 mps 733 mmHg 96%
    21:00 -3°C° 0.3 mm 6 mps 734 mmHg 95%
    22:00 -3°C° 0.3 mm 6 mps 735 mmHg 94%
    23:00 -3°C° 0.3 mm 6 mps 735 mmHg 94%

    29 February, Saturday

    Time Temperature Precipitation Wind Pressure Humidity
    00:00 -3°C° 0.1 mm 6 mps 736 mmHg 92%
    01:00 -3°C° 0.1 mm 6 mps 736 mmHg 91%
    02:00 -2°C° 0.1 mm 5 mps 737 mmHg 90%
    03:00 -2°C° 0 mm 5 mps 737 mmHg 90%
    04:00 -2°C° 0 mm 5 mps 737 mmHg 89%
    05:00 -2°C° 0 mm 5 mps 737 mmHg 89%
    06:00 -2°C° 0.1 mm 5 mps 737 mmHg 90%
    07:00 -2°C° 0.1 mm 5 mps 738 mmHg 91%
    08:00 -2°C° 0.1 mm 5 mps 738 mmHg 92%
    09:00 -1°C° 0 mm 5 mps 738 mmHg 87%
    10:00 -1°C° 0 mm 5 mps 738 mmHg 83%
    11:00 0°C° 0 mm 5 mps 738 mmHg 78%
    12:00 +1°C° 0 mm 4 mps 738 mmHg 74%
    13:00 +3°C° 0 mm 4 mps 738 mmHg 70%
    14:00 +4°C° 0 mm 3 mps 738 mmHg 66%
    15:00 +3°C° 0 mm 3 mps 738 mmHg 67%
    16:00 +3°C° 0 mm 3 mps 738 mmHg 68%
    17:00 +4°C° 0 mm 2 mps 737 mmHg 70%
    18:00 +2°C° 0 mm 3 mps 737 mmHg 73%
    19:00 +1°C° 0 mm 3 mps 737 mmHg 76%
    20:00 -1°C° 0 mm 4 mps 737 mmHg 79%
    21:00 -1°C° 0 mm 4 mps 737 mmHg 77%
    22:00 0°C° 0 mm 5 mps 737 mmHg 75%
    23:00 0°C° 0 mm 5 mps 736 mmHg 73%

    1 March, Sunday

    Time Temperature Precipitation Wind Pressure Humidity
    00:00 0°C° 0 mm 5 mps 736 mmHg 72%
    01:00 0°C° 0 mm 5 mps 736 mmHg 71%
    02:00 0°C° 0 mm 5 mps 735 mmHg 70%
    03:00 0°C° 0 mm 5 mps 735 mmHg 70%
    04:00 0°C° 0 mm 5 mps 735 mmHg 70%
    05:00 -1°C° 0 mm 4 mps 734 mmHg 70%
    06:00 0°C° 0 mm 4 mps 734 mmHg 69%
    07:00 0°C° 0 mm 4 mps 734 mmHg 68%
    08:00 0°C° 0 mm 4 mps 734 mmHg 68%
    09:00 +1°C° 0.1 mm 4 mps 734 mmHg 71%
    10:00 +2°C° 0.1 mm 5 mps 733 mmHg 73%
    11:00 +2°C° 0.1 mm 5 mps 733 mmHg 76%
    12:00 +2°C° 0.2 mm 5 mps 733 mmHg 80%
    13:00 +2°C° 0.2 mm 5 mps 733 mmHg 84%
    14:00 +2°C° 0.2 mm 5 mps 733 mmHg 87%
    15:00 +3°C° 0 mm 4 mps 733 mmHg 85%
    16:00 +3°C° 0 mm 4 mps 733 mmHg 84%
    17:00 +4°C° 0 mm 3 mps 733 mmHg 82%
    18:00 +3°C° 0 mm 3 mps 733 mmHg 85%
    19:00 +3°C° 0 mm 2 mps 733 mmHg 87%
    20:00 +4°C° 0 mm 1 mps 733 mmHg 90%
    21:00 +4°C° 0 mm 1 mps 733 mmHg 90%
    22:00 +4°C° 0 mm 1 mps 733 mmHg 91%
    23:00 +3°C° 0 mm 2 mps 732 mmHg 91%

    2 March, Monday

    Time Temperature Precipitation Wind Pressure Humidity
    00:00 +4°C° 1.2 mm 1 mps 732 mmHg 93%
    01:00 +4°C° 1.2 mm 1 mps 732 mmHg 95%
    02:00 +4°C° 1.2 mm 1 mps 731 mmHg 97%
    03:00 +4°C° 1.8 mm 1 mps 731 mmHg 97%
    04:00 +4°C° 1.8 mm 1 mps 731 mmHg 98%
    05:00 +4°C° 1.8 mm 1 mps 731 mmHg 98%
    06:00 +4°C° 0.1 mm 1 mps 731 mmHg 98%
    07:00 +4°C° 0.1 mm 1 mps 731 mmHg 98%
    08:00 +4°C° 0.1 mm 1 mps 731 mmHg 97%
    09:00 +5°C° 0 mm 1 mps 731 mmHg 93%
    10:00 +6°C° 0 mm 1 mps 732 mmHg 88%
    11:00 +6°C° 0 mm 2 mps 732 mmHg 83%
    12:00 +6°C° 0 mm 2 mps 732 mmHg 78%
    13:00 +7°C° 0 mm 2 mps 732 mmHg 72%
    14:00 +8°C° 0 mm 2 mps 732 mmHg 66%
    15:00 +8°C° 0 mm 2 mps 732 mmHg 67%
    16:00 +9°C° 0 mm 1 mps 732 mmHg 68%
    17:00 +9°C° 0 mm 1 mps 732 mmHg 69%
    18:00 +7°C° 0 mm 2 mps 732 mmHg 75%
    19:00 +6°C° 0 mm 2 mps 732 mmHg 80%
    20:00 +3°C° 0 mm 3 mps 733 mmHg 86%
    21:00 +3°C° 0 mm 3 mps 733 mmHg 85%
    22:00 +3°C° 0 mm 3 mps 733 mmHg 85%
    23:00 +3°C° 0 mm 3 mps 733 mmHg 85%
    Show more